Location: Albert Place
(40.7505°N, 111.9230°W)
Time: 22:50:54
(UTC+00:00)

Cosmos 2315 Rocket - Pass Details

Date: 13 December 2025
Orbit: 965 x 1002 km, 82.9° (Epoch: 14 January)

Event Time Altitude Azimuth Distance (km) Brightness Sun altitude
Rises 13:54:54 0° 353° (N) 3,724 6.7 -9.1°
Reaches altitude 10° 13:57:27 10° 354° (N) 2,766 6.1 -8.6°
Maximum altitude 14:03:49 82° 83° (E) 1,002 4.2 -7.5°
Drops below altitude 10° 14:10:04 10° 171° (S) 2,724 6.9 -6.4°
Sets 14:12:34 0° 172° (S) 3,662 7.5 -6.0°
